"Pseudo-MPEC" for P20MiyU

Created 2019 Feb 20 14:18:06 UT using Find_Orb

Click here for an explanation of pseudo-MPECs

 
 Astrometry: 
     P20MiyU  C2019 02 090qeAstrometry5[i.NCT.sFQSqredacted;h$#Y_hUJO(d!VNru=F52
     P20MiyU  C2019 02 09SdK[clickaYC[NhQ=m.?mb[rkc\here/dm76hTD-YYn9#)s+LJH?F52
     P20MiyU  C2019 02 09XBy%*forZwuxZ^'uSo)QVb0%!3.texplanation?ZDASV=R6GggvF52

Station data:
(F52) Pan-STARRS 2, Haleakala  (N20.707384 W156.255910)  US/Hawaii.

Orbital elements:  P20MiyU
   Perihelion 2019 Mar 5.084791 +/- 41.2 TT =  2:02:05 (JD 2458547.584791)
Epoch 2019 Feb  9.0 TT = JDT 2458523.5   Earth MOID: 0.0611   Ma: 0.0426
M 341.80398195 +/- 22               (J2000 ecliptic)          AutoNEOCP
n   0.75549828 +/- 0.382            Peri.   28.53997 +/- 70
a   1.19393420 +/- 0.403            Node   135.15771 +/- 55
e   0.1339955 +/- 0.265             Incl.   14.06313 +/- 12
P   1.30/476.50d           H 25.6   G  0.15   U 12.1  SR
q 1.03395234 +/- 0.17    Q 1.35391606 +/- 29.8
From 3 observations 2019 Feb. 9 (36.1 min); mean residual 0".18
Residuals in arcseconds: 
190209 F52  .03+  .18+    190209 F52  .05-  .35-    190209 F52  .03+  .18+    

Ephemerides (geocentric):
Date (UTC) HH   RA              Dec         delta   r     elong  mag " sig PA
---- -- -- --  -------------   -----------  ------ ------ -----  --- ---- ---
2019 02 20 14  11 53 40.405   +65 25 19.90  .08413 1.0368 122.9 22.2  39d  51
2019 02 20 15  11 54 13.951   +65 28 58.92  .08426 1.0368 122.8 22.3  39d  51
2019 02 20 16  11 54 47.541   +65 32 36.70  .08438 1.0368 122.7 22.3  39d  51
2019 02 20 17  11 55 21.174   +65 36 13.24  .08451 1.0368 122.6 22.3  38d  51
2019 02 20 18  11 55 54.851   +65 39 48.56  .08463 1.0367 122.6 22.3  38d  51
2019 02 20 19  11 56 28.572   +65 43 22.66  .08476 1.0367 122.5 22.3  38d  51
2019 02 20 20  11 57 02.334   +65 46 55.53  .08489 1.0367 122.4 22.3  38d  51
2019 02 20 21  11 57 36.139   +65 50 27.19  .08502 1.0367 122.3 22.3  38d  51
2019 02 20 22  11 58 09.985   +65 53 57.64  .08514 1.0367 122.2 22.3  38d  51
2019 02 20 23  11 58 43.873   +65 57 26.87  .08527 1.0367 122.1 22.3  38d  52
2019 02 21 00  11 59 17.801   +66 00 54.90  .08540 1.0366 122.0 22.3  38d  52
2019 02 21 01  11 59 51.770   +66 04 21.72  .08552 1.0366 122.0 22.3  38d  52
2019 02 21 02  12 00 25.779   +66 07 47.35  .08565 1.0366 121.9 22.3  38d  52
2019 02 21 03  12 00 59.827   +66 11 11.78  .08578 1.0366 121.8 22.3  38d  52
2019 02 21 04  12 01 33.914   +66 14 35.02  .08591 1.0366 121.7 22.3  38d  52
2019 02 21 05  12 02 08.039   +66 17 57.08  .08604 1.0365 121.6 22.3  38d  52
2019 02 21 06  12 02 42.203   +66 21 17.95  .08617 1.0365 121.5 22.3  38d  52
2019 02 21 07  12 03 16.404   +66 24 37.64  .08629 1.0365 121.5 22.3  38d  52
2019 02 21 08  12 03 50.642   +66 27 56.15  .08642 1.0365 121.4 22.3  38d  52
2019 02 21 09  12 04 24.917   +66 31 13.49  .08655 1.0365 121.3 22.3  38d  53
2019 02 21 10  12 04 59.228   +66 34 29.66  .08668 1.0365 121.2 22.4  38d  53
2019 02 21 11  12 05 33.575   +66 37 44.67  .08681 1.0364 121.1 22.4  38d  53
2019 02 21 12  12 06 07.956   +66 40 58.52  .08694 1.0364 121.0 22.4  38d  53
2019 02 21 13  12 06 42.373   +66 44 11.21  .08707 1.0364 121.0 22.4  38d  53
2019 02 21 14  12 07 16.824   +66 47 22.74  .08720 1.0364 120.9 22.4  38d  53
2019 02 21 15  12 07 51.308   +66 50 33.13  .08733 1.0364 120.8 22.4  38d  53
2019 02 21 16  12 08 25.826   +66 53 42.37  .08746 1.0363 120.7 22.4  38d  53
2019 02 21 17  12 09 00.376   +66 56 50.46  .08759 1.0363 120.6 22.4  38d  53
2019 02 21 18  12 09 34.959   +66 59 57.42  .08772 1.0363 120.6 22.4  38d  54
2019 02 21 19  12 10 09.573   +67 03 03.24  .08785 1.0363 120.5 22.4  38d  54
2019 02 21 20  12 10 44.219   +67 06 07.93  .08798 1.0363 120.4 22.4  38d  54
2019 02 21 21  12 11 18.895   +67 09 11.50  .08811 1.0363 120.3 22.4  38d  54
2019 02 21 22  12 11 53.601   +67 12 13.94  .08824 1.0362 120.2 22.4  38d  54
2019 02 21 23  12 12 28.337   +67 15 15.26  .08837 1.0362 120.2 22.4  38d  54
2019 02 22 00  12 13 03.102   +67 18 15.47  .08850 1.0362 120.1 22.4  38d  54
2019 02 22 01  12 13 37.896   +67 21 14.56  .08864 1.0362 120.0 22.4  38d  54
2019 02 22 02  12 14 12.718   +67 24 12.54  .08877 1.0362 119.9 22.4  38d  54
2019 02 22 03  12 14 47.567   +67 27 09.43  .08890 1.0362 119.8 22.4  38d  54
2019 02 22 04  12 15 22.444   +67 30 05.21  .08903 1.0361 119.8 22.4  38d  55
2019 02 22 05  12 15 57.347   +67 32 59.89  .08916 1.0361 119.7 22.5  38d  55
2019 02 22 06  12 16 32.276   +67 35 53.48  .08930 1.0361 119.6 22.5  38d  55
2019 02 22 07  12 17 07.230   +67 38 45.98  .08943 1.0361 119.5 22.5  38d  55
2019 02 22 08  12 17 42.210   +67 41 37.40  .08956 1.0361 119.5 22.5  38d  55
2019 02 22 09  12 18 17.213   +67 44 27.73  .08969 1.0361 119.4 22.5  38d  55
2019 02 22 10  12 18 52.241   +67 47 16.99  .08982 1.0360 119.3 22.5  38d  55
2019 02 22 11  12 19 27.292   +67 50 05.17  .08996 1.0360 119.2 22.5  38d  55
2019 02 22 12  12 20 02.365   +67 52 52.28  .09009 1.0360 119.1 22.5  38d  55
2019 02 22 13  12 20 37.461   +67 55 38.33  .09022 1.0360 119.1 22.5  38d  55